Location: Gablingen
(48.4556°N, 10.8214°E)
Time: 15:31:38
(UTC+00:00)

Daily predictions for brighter satellites

Satellite Brightness Start Highest point End
(mag) Time Altitude Azimuth Time Altitude Azimuth Time Altitude Azimuth
FALCON 9 R/B 3.9 19:31:31 10° SW 19:35:14 22° S 19:42:52 10° SE
SPOT 5 2.8 19:39:26 10° SSE 19:43:49 63° ENE 19:48:07 10° N
Cosmos 2221 3.8 19:39:43 10° SSW 19:43:51 44° WNW 19:48:01 10° N
Cosmos 1634 Rocket 4.3 19:39:07 10° NNW 19:45:24 76° W 19:51:34 10° S
Sich 1 3.7 19:43:26 10° N 19:47:36 40° ENE 19:51:43 10° SE
Cosmos 1726 1.8 19:47:51 10° NNW 19:50:58 75° W 19:54:03 10° S
Cosmos 1805 Rocket 4.1 19:47:06 10° N 19:51:20 44° ENE 19:55:33 10° SSE
Cosmos 1980 Rocket 4.5 19:49:36 10° N 19:52:25 14° NNE 19:55:13 10° ENE
Cosmos 1733 3.6 19:52:54 10° N 19:56:14 40° ENE 19:59:33 10° SSE
Cosmos 1842 Rocket 3.8 19:51:57 10° SSW 19:56:21 77° W 20:00:45 10° N
SL-8 R/B 3.7 19:53:57 10° W 19:58:43 89° N 20:03:30 10° E
Ariane Rocket 3.5 19:56:21 10° SE 20:01:10 47° ENE 20:06:03 10° N
Lacrosse 5 rocket 3.5 19:58:11 10° NW 20:01:46 25° N 20:05:18 10° ENE
USA 234 4.1 19:56:13 10° NE 20:02:33 54° NNW 20:08:53 10° W
CZ-4C R/B 3.7 20:09:09 10° N 20:13:02 70° WNW 20:17:04 10° SSW
ERS-1 Rocket 3.0 20:08:34 10° SSE 20:13:35 79° ENE 20:18:38 10° NNW
USA 59 Rocket 0.1 20:11:29 10° NW 20:15:22 88° SW 20:20:15 12° SE
SPOT 3 Rocket 3.8 20:10:36 10° SSE 20:15:31 56° ENE 20:20:34 10° N
Cosmos 614 Rocket 4.3 20:11:18 10° S 20:16:16 49° ESE 20:21:18 10° NNE
Cosmos 1818 4.0 20:12:25 10° S 20:17:29 41° ESE 20:22:37 10° NE
Cosmos 1340 Rocket 2.8 20:13:51 10° S 20:17:47 62° E 20:21:43 10° NNE
Lacrosse 4 Rocket 1.6 20:14:01 10° NNW 20:18:04 59° NE 20:21:37 14° SE
NOSS 2-1 (E) 3.6 20:14:33 10° NW 20:18:26 84° SW 20:23:14 13° SE
Meteor 1-27 Rocket 3.7 20:14:51 10° S 20:20:20 75° E 20:25:55 10° NNE
Resurs 01 Rocket 4.2 20:19:13 10° SW 20:22:14 18° W 20:25:16 10° NW
NOSS 8 (A) 4.4 20:18:33 10° SW 20:22:35 86° SE 20:25:44 10° NE
IRS-1C Rocket 4.4 20:18:11 10° S 20:23:24 66° WSW 20:28:39 10° NNW
Okean O Rocket 4.0 20:21:24 10° SW 20:24:40 20° W 20:27:56 10° NW
Terra 1.8 20:24:14 11° SSE 20:28:49 89° WSW 20:33:33 10° NNW
Cosmos 1833 Rocket 3.9 20:26:09 13° SSE 20:29:40 23° ESE 20:34:00 10° NE
Cosmos 1805 3.4 20:26:18 10° N 20:29:57 54° ENE 20:32:42 16° SSE
NOSS 2-1 (D) 3.9 20:27:43 10° NW 20:31:35 63° SW 20:35:56 15° SSE
Cosmos 1656 3.8 20:27:08 10° NNW 20:32:37 68° ENE 20:37:08 15° SE
Cosmos 1743 Rocket 3.7 20:30:16 10° NNW 20:34:42 76° W 20:38:55 11° S
Okean 1 4.2 20:37:11 10° SSW 20:40:55 47° WNW 20:44:43 10° N
ARGOS Delta rocket 4.5 20:39:16 10° S 20:44:01 52° W 20:48:34 10° NNW
Centaur D AC-29 4.4 20:38:21 10° SSW 20:44:40 24° SSE 21:07:13 10° ESE
DELTA 2 R/B (1) 4.4 20:41:49 10° SW 20:46:31 28° SSE 20:50:45 12° ESE
Cosmos 1151 Rocket 3.0 20:43:32 10° S 20:47:53 89° W 20:52:14 10° N
Landsat 5 3.6 20:44:54 10° NNE 20:48:35 46° E 20:51:04 19° SSE
Cosmos 1428 Rocket 4.5 20:42:47 10° S 20:48:48 70° E 20:54:54 10° NNE
Cosmos 1975 2.7 20:47:16 10° N 20:51:13 73° E 20:53:47 21° SSE
Cosmos 1992 Rocket 4.0 20:49:27 10° NNW 20:54:42 79° WSW 20:58:33 18° SSE
Meteor 1-18 Rocket 4.5 20:52:54 15° S 20:57:49 59° E 21:03:37 10° NNE
MOS 1 Rocket 3.8 20:54:08 14° S 20:58:36 70° W 21:04:01 10° NNW
GEOS 3 Rocket 4.4 20:54:10 10° ENE 20:58:41 30° ESE 21:01:25 19° SSE
USA 281 3.3 20:54:10 17° SE 20:59:22 77° ENE 21:05:59 10° NNW
Cosmos 220 Rocket 4.2 20:57:43 10° SSW 21:02:01 72° WNW 21:06:20 10° NNE
NOSS 3-3 (A) 3.7 20:58:04 10° SSW 21:03:30 74° SE 21:09:51 10° NE
ARIANE 5 R/B 3.8 21:02:57 18° ESE 21:05:27 31° ENE 21:09:15 10° N
Cosmos 1092 Rocket 4.0 21:01:47 14° S 21:07:13 74° E 21:13:34 10° NNE
Cosmos 1328 Rocket 3.5 21:05:06 21° S 21:07:53 63° E 21:12:09 10° NNE
Cosmos 1340 4.3 21:06:57 10° NW 21:09:45 24° W 21:12:29 10° SSW
Cosmos 2195 Rocket 4.5 21:07:42 11° S 21:13:32 86° W 21:19:42 10° N
BREEZE-M DEB (TANK) 4.3 21:15:40 21° ESE 21:15:40 21° ESE 21:18:12 10° E
Cosmos 1140 Rocket 4.1 21:14:22 23° SSE 21:16:54 37° ESE 21:21:40 10° NE
MetOp-A 3.9 21:14:04 22° S 21:17:13 78° WSW 21:22:19 10° NNW
Cosmos 1515 Rocket 4.2 21:17:02 26° SE 21:18:51 38° E 21:22:52 10° NNE
Cosmos 1626 1.7 21:17:57 27° SSW 21:19:32 85° W 21:22:47 10° N
NOSS 3-4 (A) 4.1 21:13:11 10° NW 21:19:52 65° NE 21:26:14 16° ESE
NOSS 3-4 (C) 4.1 21:13:17 10° NW 21:19:58 64° NE 21:26:21 16° ESE
Cosmos 1707 3.8 21:26:10 24° ESE 21:26:54 26° E 21:29:59 10° NNE
Cosmos 1697 Rocket 2.7 21:22:06 10° NNW 21:27:45 76° ENE 21:31:08 25° SE
BREEZE-M DEB (TANK) 2.8 21:18:48 10° WSW 21:28:28 78° SSE 21:31:24 10° ENE
Cosmos 1470 Rocket 3.5 21:25:02 10° N 21:29:30 81° E 21:31:41 29° SSE
Cosmos 1633 Rocket 3.4 21:28:01 10° NNW 21:32:23 61° W 21:34:53 24° SSW
Orbus 7S? 3.4 21:30:59 10° SW 21:36:28 58° SE 21:39:30 10° ENE
NOSS 3-3 (C) 4.0 21:31:46 10° SW 21:37:14 76° NW 21:43:47 10° NE
Cosmos 1980 Rocket 2.9 21:32:22 10° NNW 21:37:55 48° NE 21:41:37 20° ESE
Cosmos 1666 Rocket 4.4 21:34:11 10° NNW 21:38:16 43° W 21:40:51 20° SSW
Lacrosse 5 rocket 2.3 21:36:51 10° NW 21:40:55 44° NNE 21:44:16 14° E
SL-8 R/B 3.6 21:36:25 10° W 21:41:08 64° SSW 21:43:38 27° SE
Cosmos 44 Rocket 3.3 21:38:43 10° NW 21:43:38 68° WSW 21:45:49 32° SSE
Cosmos 1842 3.2 21:44:35 41° SSE 21:45:36 58° E 21:49:13 10° NNE
Cosmos 1674 2.4 21:44:53 44° SSE 21:45:47 68° E 21:49:17 10° NNE
Cosmos 1763 Rocket 4.3 21:44:44 10° NNW 21:49:49 44° ENE 21:52:51 22° ESE
Cosmos 1066 Rocket 4.4 21:46:58 20° SSW 21:51:12 80° WNW 21:57:06 10° N
Meteor 2-12 Rocket 4.4 21:50:05 24° S 21:54:02 86° E 22:00:14 10° N
Cosmos 1933 Rocket 3.5 21:50:03 10° N 21:54:27 76° E 21:56:09 37° SSE
MINOTAUR 4 R/B 3.4 21:52:30 10° NNE 21:55:28 73° ESE 21:55:42 68° SSE
Lacrosse 4 Rocket 3.4 21:53:15 10° WNW 21:55:56 17° WSW 21:57:32 14° SW
KORONAS-FOTON 3.6 21:55:04 45° SSE 21:56:03 72° E 21:59:46 10° NNE
Cosmos 407 Rocket 3.7 21:56:18 31° S 21:58:38 56° ESE 22:03:45 10° NNE
H-2A R/B 2.6 22:01:54 38° SE 22:03:27 71° ENE 22:07:44 10° N
USA 59 Rocket 2.5 22:02:33 10° W 22:04:57 14° WSW 22:06:49 12° SW
Cosmos 1607 4.0 21:59:03 10° SW 22:05:32 90° NW 22:12:05 10° NE
Cosmos 2369 4.1 21:59:53 10° NNW 22:05:33 59° ENE 22:08:52 25° SE
Terra 4.3 22:05:24 10° WSW 22:07:06 12° W 22:08:48 10° WNW
Cosmos 1766 4.4 22:04:46 10° NNW 22:08:10 33° W 22:09:34 25° SW
Cosmos 1833 Rocket 3.1 22:07:45 11° SW 22:13:05 63° WNW 22:18:42 10° NNE
ALOS 2 3.1 22:12:16 32° SE 22:13:57 50° ENE 22:18:13 10° N
COSMOS 2406 3.8 22:15:19 31° SSE 22:17:11 40° ESE 22:22:31 10° NE
SL-16 R/B 3.8 22:12:43 10° NNW 22:17:37 29° NE 22:22:31 10° ESE
Cosmos 1758 4.2 22:17:27 10° N 22:21:02 35° ENE 22:22:01 30° ESE
Cosmos 1470 3.2 22:19:11 10° NNW 22:22:45 47° W 22:23:37 38° SW
S3M 4.0 22:19:30 10° N 22:25:57 86° W 22:29:12 32° S
Cosmos 2082 Rocket 2.4 22:23:56 34° S 22:26:12 56° ESE 22:31:48 10° NE
Cosmos 2251 Rocket 3.4 22:24:49 31° SSW 22:27:23 86° ESE 22:32:42 10° NNE
Cosmos 2360 Rocket 4.4 22:25:19 10° N 22:29:33 21° NE 22:33:47 10° E
DELTA 2 R/B (1) 4.3 22:27:12 10° WSW 22:31:29 32° SSW 22:31:29 32° SSW
Meteor 2-10 Rocket 3.9 22:30:29 10° N 22:36:19 70° ENE 22:38:54 33° SSE
GEOS 3 Rocket 4.0 22:31:50 10° NE 22:36:58 62° NW 22:42:00 10° WSW
SL-08 ROCKET BODY 4.4 22:34:31 31° S 22:37:41 89° W 22:43:54 10° N
Cosmos 1908 3.6 22:35:15 10° NNW 22:38:40 44° W 22:39:14 40° WSW
ARIANE 5 R/B 3.8 22:40:25 25° SW 22:41:49 30° W 22:45:40 10° NNW
Meteor 1-13 Rocket 4.4 22:40:24 29° SSW 22:43:32 75° WNW 22:49:24 10° N
Cosmos 2315 Rocket 4.0 22:40:10 10° N 22:46:31 87° W 22:49:34 33° S
H-2A R/B 2.9 22:44:43 10° NNE 22:48:49 36° E 22:49:42 33° SE
USA 267 4.2 22:44:46 10° ENE 22:50:05 26° SE 22:51:04 25° SE
Cosmos 2285 Rocket 4.5 22:48:47 17° SW 22:53:34 57° WNW 22:59:51 10° NNE
Cosmos 1346 Rocket 3.1 22:54:16 10° N 22:58:07 55° ENE 22:58:57 44° ESE
Meteor 1-22 Rocket 4.4 22:53:43 10° NNW 22:58:59 60° W 23:01:09 35° SSW
Spot 4 4.4 22:58:19 34° SW 22:59:49 44° W 23:04:24 10° NNW
SL-4 R/B 4.4 23:02:20 12° ESE 23:02:20 12° ESE 23:02:54 10° E
Cosmos 1707 4.5 23:00:27 19° WSW 23:01:51 23° WNW 23:04:52 10° NNW
Cosmos 1733 Rocket 3.0 22:57:40 10° N 23:02:02 84° E 23:03:12 49° SSE
Cosmos 1400 Rocket 2.7 23:02:59 54° SSW 23:03:49 79° WNW 23:07:48 10° N
Cosmos 2278 3.9 22:58:08 10° NNW 23:03:52 68° ENE 23:07:01 27° SE
Cosmos 1300 2.4 23:02:46 10° NNW 23:06:20 76° W 23:06:40 68° SSW
SL-24 R/B 4.4 23:02:15 10° NNE 23:07:05 84° ESE 23:09:07 39° S
Cosmos 1697 Rocket 4.4 23:07:13 10° WNW 23:11:03 19° W 23:12:51 16° WSW
Cosmos 2322 Rocket 3.2 23:07:14 10° NNW 23:12:38 43° NE 23:17:17 14° ESE
Meteor 1-21 4.2 23:11:02 37° S 23:13:23 78° E 23:19:11 10° NNE
Cosmos 841 Rocket 3.7 23:08:21 10° NNW 23:13:36 70° ENE 23:16:05 31° SE
Okean 1-7 3.6 23:18:10 38° SE 23:19:13 46° E 23:23:22 10° NNE
Lacrosse 5 rocket 1.8 23:15:21 10° WNW 23:19:04 42° SW 23:19:04 42° SW
Cosmos 2228 Rocket 3.3 23:19:15 41° SW 23:20:39 64° WNW 23:25:11 10° N
Cosmos 1980 Rocket 3.2 23:16:42 10° NW 23:21:42 32° WSW 23:23:22 27° SW
USA 234 3.9 23:20:55 10° E 23:27:19 58° NNE 23:33:42 10° NW
Cosmos 1356 Rocket 3.4 23:27:09 51° SSW 23:28:07 77° WNW 23:32:18 10° N
Cosmos 2333 Rocket 3.3 23:22:45 10° NNW 23:28:11 41° NE 23:33:35 10° ESE
Cosmos 540 Rocket 4.1 23:24:14 10° NW 23:29:05 42° WSW 23:30:28 34° SW
Cosmos 1953 2.6 23:27:20 10° N 23:31:12 57° ENE 23:32:08 43° SE
Genesis I 3.6 23:33:03 41° ESE 23:33:03 41° ESE 23:36:10 10° NE
GP-B 3.8 23:32:46 10° N 23:36:58 44° W 23:38:18 34° SW
SL-14 R/B 4.1 23:36:11 33° WSW 23:37:06 39° WNW 23:40:43 10° N
Cosmos 1703 Rocket 4.1 23:38:29 37° SE 23:39:48 50° E 23:44:08 10° NNE
Cosmos 1455 2.1 23:39:14 10° N 23:42:41 63° ENE 23:43:13 54° SE
Cosmos 1862 Rocket 4.0 23:42:08 37° SW 23:43:28 51° WNW 23:47:43 10° N
Aureole 3 3.3 23:44:34 45° W 23:44:41 45° WNW 23:47:51 10° N
SJ 16-02 2.6 23:45:36 24° SE 23:46:41 27° E 23:50:22 10° NE
Cosmos 676 Rocket 4.5 23:44:45 28° SW 23:47:27 57° WNW 23:52:43 10° NNE
RESURS DK-1 3.3 23:44:35 10° NNW 23:48:31 44° NE 23:51:06 19° ESE
ALOS 2 4.3 23:49:40 18° WSW 23:50:34 19° W 23:53:45 10° NW
